{"data":{"norad_id":60284,"epoch":"2026-09-21T03:06:39.222432Z","epoch_age_seconds":127317,"freshness":"FRESH","line1":"1 60284U 24132G   26264.12962063 -.00000693  00000+0 -93878-5 0  9990","line2":"2 60284  53.1588 210.4092 0001323  86.2028 273.9125 15.34384867121681","mean_motion":15.34384867,"eccentricity":0.0001323,"inclination_deg":53.1588,"raan_deg":210.4092,"arg_perigee_deg":86.2028,"mean_anomaly_deg":273.9125,"bstar":-9.3878e-6,"rev_number":12168,"period_min":93.848683662754,"perigee_km":461.84316992743,"apogee_km":463.65326815639,"semimajor_km":6840.8852190419,"source":"CELESTRAK","updated_at":"2026-09-22T09:00:49.192314Z"}}